Voltar ao catálogo

STARLINK-34705

AtivoComunicaçõesSSO
NORAD 64932·PAYLOAD·🇺🇸 United States

Lançado Jul 26, 2025 de Vandenberg Space Force Base

Loading…

Próximas Passagens (próximas 24 horas)

TLE

AtualizadoSource: CelesTrak SupGP

Época: Sep 14, 2026, 20:52 UTC

1 64932C 25158A   26257.86993056  .00014273  00000+0  44334-3 0  2577
2 64932  97.2845 116.2352 0001809  92.4465 233.9365 15.33413047    12

Acompanhe STARLINK-34705 em tempo real com AllMySat

Download on the App Store